Voltar ao catálogo

FIRESAT0

AtivoCiênciaSSO
NORAD 63256·PAYLOAD·🇺🇸 United States

Lançado Mar 15, 2025 de Vandenberg Space Force Base

Loading…

Próximas Passagens (próximas 24 horas)

TLE

AtualizadoSource: Space-Track

Época: Sep 14, 2026, 03:20 UTC

1 63256U 25052AY  26257.13923631  .00000532  00000-0  56364-4 0  9994
2 63256  97.6825 146.3117 0001429  54.8347 305.3006 14.93082889 81863

Acompanhe FIRESAT0 em tempo real com AllMySat

Download on the App Store